Location: Arbon
(43.0005°N, 0.7472°E)
Time: 22:31:53
(UTC+00:00)

Altair - Pass Details

Date: 02 December 2020
Orbit: 1501 x 1682 km, 47.2° (Epoch: 26 January)

Event Time Altitude Azimuth Distance (km) Brightness Sun altitude
Rises 23:04:50 0° 283° (WNW) 4,681 - -67.4°
Reaches altitude 10° 23:07:55 10° 286° (WNW) 3,682 - -67.6°
Maximum altitude 23:17:09 72° 11° (N) 1,566 - -68.2°
Drops below altitude 10° 23:26:21 10° 96° (E) 3,660 - -68.7°
Sets 23:29:24 0° 98° (E) 4,652 - -68.8°
